CZ-6A DEB, 54412

Orbit data source: Space-Track

CZ-6A DEB, 54412 is space debris in SSO originally from a launch on Fri, 11 Nov 2022 UTC launched from the Taiyaun Space Center, China (TSC). Debris objects in space refer to the collection of defunct objects orbiting the Earth. Examples of debris include non-operational satellites, rocket bodies, and fragments generated from explosions, collisions, or faulty payload assembly.

Loading next visibility...
Identifier
54412, 2022-151EL
Orbit
SSO
Country
Flag of CNCN / PRC
Related business
Manufacturer
SAST
Mission
Spacecraft
Bus & Motor
Unknown
Mass
Unknown
Launch date (UTC)
2022-11-11 (3 years ago)
Launch vehicle
Unknown
Launch site
Taiyaun Space Center, China (TSC)
Object type
Payload
Rocket body
Debris
Shape & HBR
Unknown shape, 0.1 m
Radar Cross Section
Small (<0.1 m²)

Expand to show TLE details & history
Last TLE update: 13 hours ago

TLE from 13 hours ago
0 CZ-6A DEB
1 54412U 22151EL  25352.52492287  .00010802  00000-0  12070-2 0  9996
2 54412  98.6420  80.5466 0099832 329.7738  29.7737 14.83559287165724
Epoch: 2025-12-18T12:35Z
TLE epoch observation values (Epoch: 2025-12-18T12:35:53.335Z)
Latitude
-0.00006°
Longitude
164.1952°
Altitude
560.652 km
Speed
7.614 km/s
True Right ascension
05h 22m 11s
True Declination
0° 00' 00"
Sunlit
Object was in full shadow at epoch
Visualization orbit readout
Latitude
Unknown
Longitude
Unknown
Altitude
Unknown
Speed
Unknown
Apparent Right ascension
Unknown
Apparent Declination
Unknown
Sunlit
N/A
Visualization observer readout
Local Sidereal Time
00:37:41
Azimuth
Unknown
Elevation
Unknown
Doppler factor
Unknown
Orbital elements
Apogee altitude
684.998 km
Perigee altitude
545.366 km
Semi-major axis
6,993.319 km
Eccentricity
0.00998
Inclination
98.642°
RAAN
80.5466°
Arg. of periapsis
329.7738°
True anomaly
30.34799°
Mean anomaly
29.7737°
Eccentric anomaly
30.06022°
Mean motion
3.71123 °/min
Orbital period
97 mins
BSTAR
0.001207
Loading maneuver chart data...
Computing Atmospheric mass density...
Loading historical data...
Loading historical data...
Loading historical data...
Loading historical data...
Loading historical data...
Loading historical data...
Loading historical data...

Documentation

Showing up to 5 results
|